Starlink 30940

operational
NORAD ID: 58409 Int'l Des: 2023-180 Owner: SPXS Country: US Constellation: starlink
LEOCIRCULAR

关于 Starlink 30940

正在加载描述...

实时位置

正在加载3D地球...

即将过境

高度历史

Altitude vs Time

uPlot chart will show altitude changes over time

两行轨道根数

1 58409U 23180H 25352.03563425 .00000370 00000-0 22961-4 0 9999
2 58409 43.0015 8.6123 0000280 309.5151 50.5676 15.27574072116844
Epoch: Dec 18, 2025 • Age: 13 hours

当前状态

高度 482.2 km
速度 7.63 km/s
星下点 18.11°N, 95.72°E
发射日期 Nov 22, 2023
运行时间 2 years
类型 internet

技术详情

分类 Payload
质量 730.00 kg
干质量 700.00 kg
总质量 730.00 kg
长度 0.30 m
直径 4.10 m
跨度 29.00 m
形状 Box + pan
制造商 SPXS
平台类型 Starlink V2M
阶段状态 In Orbit
所有者/国家 SPXS/US

大型星座

Loading constellations...